Precipitable_Water
0.88 0.87 0.86 0.85 0.86 0.87 0.85 0.82 0.84 0.86 0.93 0.95 0.95 0.98 0.93 0.88 0.87 0.84 0.84 0.79 0.78 0.75 0.76 0.80 0.86 0.92 0.97 1.02 1.03 1.00 0.93 0.89 0.90 0.89 0.82 0.77 0.75 0.73 0.72 0.75 0.76 0.76
0.89 0.88 0.87 0.86 0.84 0.84 0.85 0.84 0.86 0.92 0.93 0.95 0.99 0.99 0.96 0.89 0.84 0.84 0.81 0.80 0.76 0.72 0.76 0.80 0.83 0.88 0.89 0.91 0.95 0.94 0.90 0.88 0.84 0.85 0.80 0.76 0.74 0.71 0.70 0.72 0.73 0.75
0.90 0.89 0.86 0.83 0.82 0.83 0.84 0.87 0.91 0.92 0.93 0.95 0.97 0.93 0.90 0.85 0.77 0.78 0.80 0.77 0.72 0.70 0.73 0.76 0.78 0.82 0.82 0.84 0.87 0.87 0.85 0.84 0.80 0.81 0.78 0.75 0.72 0.70 0.69 0.69 0.69 0.70
0.94 0.91 0.88 0.87 0.87 0.86 0.86 0.86 0.88 0.90 0.91 0.84 0.81 0.81 0.79 0.73 0.68 0.68 0.71 0.72 0.70 0.69 0.71 0.74 0.74 0.75 0.77 0.79 0.78 0.77 0.77 0.76 0.76 0.75 0.71 0.70 0.69 0.68 0.65 0.65 0.63 0.61
0.94 0.91 0.90 0.90 0.90 0.85 0.84 0.84 0.83 0.88 0.86 0.80 0.78 0.75 0.68 0.66 0.63 0.64 0.66 0.66 0.64 0.64 0.66 0.68 0.72 0.73 0.75 0.75 0.72 0.71 0.70 0.67 0.65 0.63 0.62 0.61 0.62 0.58 0.53 0.46 0.40 0.39
0.94 0.91 0.89 0.88 0.86 0.82 0.83 0.80 0.81 0.81 0.81 0.78 0.76 0.74 0.68 0.61 0.61 0.60 0.59 0.56 0.56 0.57 0.59 0.62 0.63 0.65 0.69 0.69 0.69 0.65 0.58 0.52 0.51 0.50 0.50 0.49 0.49 0.50 0.49 0.48 0.44 0.41
0.88 0.88 0.87 0.88 0.85 0.83 0.80 0.79 0.79 0.81 0.81 0.76 0.74 0.73 0.66 0.59 0.56 0.56 0.55 0.52 0.49 0.51 0.54 0.56 0.58 0.60 0.61 0.59 0.55 0.48 0.45 0.43 0.45 0.47 0.47 0.50 0.52 0.53 0.55 0.55 0.56 0.55
0.87 0.88 0.88 0.87 0.84 0.84 0.79 0.77 0.78 0.83 0.82 0.78 0.69 0.67 0.67 0.65 0.57 0.57 0.53 0.49 0.48 0.47 0.50 0.50 0.50 0.51 0.52 0.49 0.45 0.45 0.47 0.51 0.54 0.57 0.57 0.58 0.59 0.57 0.59 0.61 0.60 0.59
0.89 0.88 0.88 0.86 0.85 0.81 0.77 0.78 0.81 0.83 0.81 0.74 0.66 0.63 0.69 0.67 0.62 0.53 0.48 0.49 0.50 0.50 0.50 0.49 0.50 0.52 0.52 0.49 0.50 0.53 0.56 0.58 0.61 0.62 0.63 0.62 0.62 0.61 0.62 0.63 0.61 0.60
0.92 0.93 0.91 0.87 0.82 0.79 0.75 0.79 0.81 0.82 0.80 0.72 0.65 0.64 0.65 0.68 0.65 0.54 0.51 0.52 0.53 0.52 0.53 0.54 0.57 0.57 0.54 0.53 0.58 0.60 0.60 0.61 0.62 0.62 0.62 0.61 0.59 0.58 0.59 0.59 0.59 0.58
0.96 0.96 0.93 0.88 0.83 0.78 0.76 0.77 0.77 0.79 0.74 0.68 0.64 0.64 0.68 0.72 0.69 0.61 0.60 0.56 0.56 0.57 0.58 0.59 0.60 0.59 0.57 0.56 0.61 0.63 0.63 0.62 0.60 0.59 0.59 0.59 0.59 0.59 0.60 0.59 0.58 0.57
0.98 0.95 0.93 0.92 0.89 0.87 0.84 0.83 0.80 0.74 0.66 0.66 0.65 0.68 0.74 0.75 0.69 0.61 0.62 0.58 0.59 0.60 0.63 0.64 0.64 0.63 0.60 0.58 0.62 0.65 0.63 0.62 0.61 0.60 0.59 0.60 0.61 0.61 0.61 0.61 0.60 0.59
1.01 0.98 0.94 0.93 0.94 0.94 0.93 0.92 0.88 0.79 0.69 0.69 0.77 0.76 0.78 0.74 0.69 0.64 0.62 0.60 0.60 0.60 0.63 0.65 0.65 0.65 0.67 0.65 0.65 0.66 0.66 0.65 0.64 0.64 0.65 0.67 0.66 0.65 0.65 0.66 0.66 0.66
1.03 1.02 0.98 0.97 0.98 0.97 0.96 0.94 0.92 0.91 0.87 0.82 0.83 0.82 0.80 0.77 0.73 0.63 0.63 0.61 0.60 0.63 0.64 0.65 0.64 0.63 0.66 0.67 0.68 0.69 0.68 0.69 0.67 0.68 0.69 0.70 0.72 0.72 0.73 0.73 0.75 0.78
1.08 1.06 1.03 1.01 0.97 0.93 0.92 0.92 0.92 0.91 0.91 0.87 0.85 0.85 0.82 0.77 0.76 0.69 0.62 0.58 0.59 0.59 0.61 0.63 0.62 0.61 0.64 0.65 0.65 0.68 0.68 0.68 0.69 0.68 0.69 0.70 0.73 0.76 0.78 0.80 0.82 0.85
1.10 1.06 1.04 1.02 0.98 0.95 0.93 0.93 0.93 0.93 0.92 0.90 0.87 0.87 0.85 0.77 0.77 0.74 0.67 0.62 0.58 0.58 0.60 0.61 0.62 0.63 0.65 0.66 0.66 0.66 0.68 0.68 0.71 0.70 0.70 0.73 0.73 0.75 0.79 0.83 0.85 0.87
1.04 1.01 1.01 0.99 0.98 0.98 0.98 0.97 0.96 0.95 0.92 0.89 0.88 0.89 0.88 0.87 0.85 0.81 0.80 0.76 0.72 0.68 0.65 0.64 0.64 0.65 0.65 0.67 0.67 0.68 0.69 0.69 0.69 0.70 0.71 0.72 0.73 0.74 0.76 0.81 0.85 0.88
1.01 0.99 0.96 0.97 0.98 0.97 0.98 0.98 0.97 0.95 0.93 0.91 0.88 0.87 0.89 0.90 0.86 0.85 0.85 0.84 0.83 0.82 0.79 0.77 0.74 0.74 0.74 0.73 0.72 0.72 0.73 0.74 0.75 0.74 0.74 0.73 0.74 0.75 0.78 0.81 0.83 0.85
0.94 0.92 0.91 0.91 0.94 0.95 0.96 0.96 0.93 0.92 0.92 0.92 0.90 0.91 0.90 0.88 0.88 0.87 0.86 0.87 0.85 0.83 0.84 0.86 0.85 0.84 0.78 0.78 0.79 0.80 0.81 0.82 0.84 0.84 0.85 0.84 0.83 0.83 0.82 0.83 0.83 0.83
0.76 0.81 0.84 0.85 0.87 0.90 0.91 0.89 0.88 0.88 0.90 0.92 0.93 0.94 0.92 0.91 0.92 0.90 0.88 0.87 0.88 0.86 0.85 0.87 0.89 0.90 0.88 0.83 0.81 0.80 0.83 0.87 0.89 0.90 0.90 0.91 0.90 0.89 0.89 0.88 0.88 0.86
0.71 0.72 0.73 0.74 0.74 0.74 0.76 0.77 0.80 0.82 0.87 0.88 0.88 0.88 0.87 0.86 0.87 0.89 0.91 0.91 0.91 0.93 0.90 0.88 0.90 0.92 0.90 0.87 0.83 0.82 0.84 0.86 0.87 0.89 0.92 0.94 0.96 0.97 0.97 0.96 0.97 0.95
0.72 0.71 0.70 0.70 0.70 0.71 0.71 0.71 0.72 0.73 0.73 0.78 0.86 0.88 0.88 0.87 0.86 0.86 0.85 0.88 0.92 0.93 0.93 0.90 0.92 0.94 0.93 0.92 0.91 0.89 0.88 0.89 0.88 0.86 0.86 0.87 0.88 0.97 0.99 0.97 1.02 0.98
0.62 0.62 0.63 0.65 0.67 0.67 0.67 0.66 0.67 0.70 0.73 0.74 0.73 0.73 0.78 0.84 0.83 0.83 0.85 0.86 0.87 0.88 0.88 0.88 0.90 0.93 0.93 0.91 0.90 0.91 0.90 0.88 0.86 0.84 0.83 0.85 0.87 0.91 0.92 0.92 0.93 0.94
0.59 0.60 0.60 0.60 0.61 0.62 0.64 0.66 0.68 0.70 0.70 0.71 0.69 0.68 0.68 0.69 0.71 0.75 0.79 0.80 0.80 0.80 0.83 0.82 0.83 0.86 0.88 0.90 0.90 0.89 0.88 0.84 0.84 0.83 0.83 0.81 0.83 0.86 0.89 0.91 0.93 0.92
0.59 0.59 0.60 0.61 0.62 0.63 0.64 0.63 0.63 0.63 0.64 0.65 0.65 0.65 0.67 0.68 0.70 0.69 0.72 0.77 0.80 0.80 0.83 0.83 0.83 0.86 0.88 0.88 0.87 0.87 0.86 0.86 0.85 0.82 0.78 0.80 0.85 0.85 0.88 0.89 0.91 0.94
0.61 0.60 0.58 0.58 0.58 0.60 0.61 0.61 0.61 0.60 0.59 0.57 0.56 0.56 0.58 0.60 0.61 0.64 0.66 0.69 0.72 0.73 0.75 0.80 0.81 0.83 0.85 0.85 0.83 0.83 0.83 0.82 0.81 0.76 0.75 0.80 0.83 0.83 0.83 0.86 0.86 0.86
Wind_Speed
9 8 7 7 6 6 5 5 5 4 4 4 4 5 5 5 5 5 5 6 6 5 5 4 4 5 5 5 5 5 5 5 5 5 6 6 6 5 5 5 6 6
9 8 7 6 6 5 5 4 4 4 4 4 4 5 5 5 5 5 5 5 6 5 5 5 5 5 5 5 5 5 5 5 5 5 6 6 6 5 5 5 5 6
9 8 7 7 6 5 5 5 4 4 4 4 4 4 4 4 5 4 4 5 5 5 5 5 5 6 6 6 5 5 5 5 5 6 6 6 6 5 5 6 6 6
9 8 8 8 7 6 6 6 5 5 5 5 4 4 4 4 4 3 3 4 4 4 5 5 5 6 6 6 6 5 5 5 5 6 5 5 5 5 5 6 6 6
10 9 9 8 7 7 7 7 6 5 5 5 5 5 5 4 4 3 3 4 4 5 5 5 5 6 6 6 6 6 6 5 5 6 6 5 5 5 5 5 6 6
10 10 10 9 8 7 7 7 6 6 5 5 5 5 5 5 5 4 4 5 5 5 5 5 6 6 6 6 6 6 6 6 6 6 6 6 6 5 5 5 4 5
11 10 9 8 8 7 7 7 6 6 6 5 5 5 5 5 5 5 4 5 5 6 5 5 6 6 6 6 6 6 6 6 6 6 6 6 6 6 5 5 4 4
11 10 9 8 8 7 7 7 6 6 6 6 6 6 6 6 5 5 5 5 5 6 6 6 5 5 5 5 5 5 5 5 6 6 6 6 5 6 6 5 5 5
11 10 9 8 8 8 7 7 6 6 5 6 6 6 7 6 6 5 5 5 6 6 6 6 5 5 5 5 5 5 5 5 6 6 5 6 6 6 6 6 6 5
11 10 9 9 9 8 7 7 6 6 6 5 6 7 7 7 7 6 6 6 6 6 6 6 6 6 6 6 5 5 6 6 6 6 6 6 6 6 6 7 7 7
11 10 10 10 9 9 8 7 7 7 6 6 6 6 7 7 8 7 6 7 7 7 6 6 6 6 7 7 6 6 6 7 7 7 7 7 7 7 7 8 8 9
12 11 11 10 9 9 9 8 7 7 7 6 6 6 6 7 8 8 8 8 8 7 7 7 7 7 7 7 7 7 8 8 8 8 8 8 8 9 9 10 10 10
12 11 11 10 9 9 9 9 8 7 7 7 7 7 7 8 9 9 9 9 9 9 9 9 8 8 8 9 9 9 9 10 10 10 10 9 10 10 11 11 11 11
12 12 11 11 10 9 9 9 9 8 8 8 7 8 8 9 9 10 11 10 10 10 10 10 10 10 10 11 11 11 11 12 12 12 12 12 12 12 13 13 13 13
12 12 11 11 11 10 10 9 9 9 9 9 9 9 10 10 10 10 11 12 12 12 12 12 12 12 12 13 13 13 14 14 14 15 15 15 15 15 15 15 15 15
12 11 11 11 11 11 11 10 10 10 10 10 11 10 10 11 11 11 11 12 13 13 13 13 13 13 14 14 15 15 16 16 16 17 17 17 17 17 17 17 17 17
11 11 11 12 12 12 12 12 12 12 12 12 12 12 11 11 11 12 12 13 13 14 14 15 15 15 16 16 16 17 18 18 18 19 19 20 20 20 20 20 20 20
11 12 12 12 13 13 13 14 14 14 14 14 14 14 13 13 13 14 14 15 15 15 15 16 17 16 17 17 18 18 19 20 20 21 22 22 23 23 23 23 23 22
12 13 13 13 13 14 14 14 14 14 15 15 15 15 16 16 16 16 17 17 17 18 18 18 18 18 18 19 20 20 21 21 22 23 24 24 24 25 25 25 25 25
12 13 13 14 14 15 15 15 15 16 16 16 16 17 17 18 19 19 19 19 19 19 19 20 20 20 20 20 21 22 23 23 24 25 25 26 26 26 27 27 27 26
14 14 14 15 15 15 16 16 17 17 17 18 19 19 19 20 20 20 21 21 21 21 21 22 22 22 22 23 23 23 24 25 25 26 26 27 28 28 28 27 27 26
16 16 16 16 17 17 17 17 18 18 19 20 20 21 21 21 21 22 22 22 23 23 24 24 24 24 24 25 26 26 26 26 27 27 28 29 29 30 30 30 29 29
18 18 18 19 19 19 19 20 21 21 22 22 22 22 22 23 23 24 24 24 25 25 25 26 27 27 27 28 28 29 29 29 29 30 30 31 31 32 32 31 31 31
19 20 20 20 21 21 22 22 23 24 24 25 25 25 25 25 26 26 26 26 27 27 27 28 29 29 30 31 31 31 31 32 32 32 32 33 33 33 33 32 32 33
21 22 22 23 23 24 24 25 26 27 27 28 28 28 28 28 28 28 29 29 29 30 30 31 31 32 32 33 33 33 33 33 33 34 34 34 34 34 34 33 33 33
24 24 25 26 26 27 28 28 29 29 30 30 31 31 32 32 32 32 33 32 32 33 33 34 34 34 35 35 35 34 34 34 34 35 35 35 35 35 35 35 35 34
Wind_Direction
212 214 216 224 230 237 245 248 253 254 256 258 246 243 250 245 236 235 238 244 247 242 233 228 220 208 206 207 209 213 218 220 218 216 213 212 213 213 214 217 218 219
211 214 217 223 228 232 243 250 254 255 257 256 245 246 255 251 244 240 240 244 246 236 222 219 215 205 203 205 207 210 213 214 215 214 210 207 210 213 214 215 218 223
214 219 222 226 228 231 244 254 258 260 261 259 252 253 261 261 254 247 243 241 237 225 211 211 209 202 202 207 209 209 209 211 215 216 214 213 217 220 221 222 223 224
216 221 225 228 230 236 248 255 258 262 263 262 259 258 258 256 248 242 242 237 231 222 210 209 209 204 206 212 212 211 212 214 215 214 214 217 222 224 225 228 229 226
222 226 228 230 232 239 249 253 254 260 265 263 261 259 250 241 237 239 242 238 231 221 213 213 214 211 215 219 218 216 219 220 219 214 210 210 214 220 226 232 233 230
226 228 230 232 233 239 246 248 251 258 263 261 257 253 244 236 236 240 241 237 229 220 215 217 221 221 223 224 222 224 226 225 221 216 211 210 214 221 225 225 226 228
224 225 227 229 231 235 239 242 248 254 254 253 250 242 233 229 230 234 237 233 223 217 215 218 224 224 223 222 220 223 226 221 218 215 213 215 219 222 220 216 216 222
220 222 225 226 228 230 233 237 243 248 250 252 248 235 225 224 227 229 229 223 215 214 218 221 222 221 219 220 218 219 220 218 217 216 216 218 222 222 220 219 223 225
218 223 225 224 225 227 228 231 237 242 247 251 245 234 227 226 229 229 225 220 217 217 220 221 222 222 221 219 218 221 223 224 224 221 219 220 223 225 226 228 233 238
219 223 224 222 223 224 225 229 234 237 241 245 242 235 230 227 229 230 225 225 226 222 220 221 223 226 226 222 223 228 227 227 228 226 225 227 229 232 234 237 241 246
220 221 221 221 223 224 225 229 234 236 238 240 237 233 229 227 229 228 224 226 230 227 225 227 228 231 231 228 229 232 230 231 234 235 236 239 242 244 246 247 249 251
217 217 219 221 224 226 229 234 237 237 236 235 232 230 229 228 230 230 226 226 230 233 235 237 239 242 241 237 236 237 237 238 241 243 247 251 253 255 256 257 257 258
216 216 220 224 226 228 232 238 241 239 234 232 231 231 231 232 234 234 231 231 234 238 242 245 247 247 246 244 242 242 242 244 246 248 253 256 257 259 262 263 263 262
216 217 221 225 229 231 234 237 239 238 236 235 236 240 240 240 241 240 239 241 242 243 246 249 251 251 250 248 247 246 246 248 250 253 255 258 259 261 263 264 264 264
216 219 225 231 233 235 235 235 235 237 243 244 245 251 250 246 248 249 246 248 249 248 250 252 253 254 253 252 252 252 253 254 255 256 257 258 260 261 262 263 264 265
219 224 230 234 235 236 236 237 240 243 250 250 249 255 256 250 252 253 251 253 255 255 256 256 256 256 255 254 255 256 257 257 259 259 260 261 261 262 262 263 263 265
226 232 236 237 238 240 242 245 248 250 254 253 251 255 258 255 255 254 254 258 260 260 260 258 258 259 257 256 257 259 259 260 261 261 262 263 263 263 264 264 264 265
239 242 244 244 243 247 250 253 254 254 256 256 254 255 257 258 260 260 260 262 262 262 262 261 261 261 260 259 259 259 261 264 264 264 264 265 265 265 265 265 265 265
247 249 249 249 250 251 253 254 256 257 257 257 258 259 260 262 263 264 265 265 264 263 263 262 263 264 263 263 263 263 264 266 266 265 265 265 266 266 266 265 265 265
252 254 254 255 257 257 257 258 260 261 261 260 262 264 265 266 267 268 267 266 265 264 263 263 264 265 266 265 266 266 267 268 269 269 268 267 267 267 266 265 265 265
256 259 259 260 261 262 262 262 263 264 265 265 266 267 267 268 269 269 269 267 266 265 265 264 264 265 266 266 267 268 269 270 271 271 270 270 269 268 267 266 265 265
260 261 261 262 263 263 263 263 263 265 266 267 268 268 269 270 270 271 270 269 268 267 266 266 265 265 266 268 268 269 270 271 272 272 271 271 270 269 269 268 267 266
262 263 263 264 264 264 264 264 265 266 267 268 269 269 270 271 272 272 272 271 270 270 268 266 266 266 268 269 270 270 271 272 273 273 272 271 271 270 270 269 268 266
263 264 265 266 266 267 268 268 269 269 269 269 270 272 272 272 272 273 273 273 272 271 269 268 268 269 270 271 272 271 271 272 273 273 272 272 271 271 270 269 268 266
264 265 266 266 268 269 270 271 272 272 271 271 271 272 272 272 272 273 274 274 273 271 271 270 270 271 271 272 272 272 271 272 273 273 272 272 271 270 269 268 268 267
266 267 267 267 268 269 271 272 272 272 272 272 272 272 272 272 272 273 274 274 273 272 271 271 271 272 272 272 273 272 271 272 272 272 272 272 270 269 269 268 268 268